Location: Newark
(44.3100°N, 0.7769°W)
Time: 21:24:50
(UTC+00:00)

Envisat - Pass Details

Date: 21 November 2019
Orbit: 764 x 766 km, 98.1° (Epoch: 10 December)

Event Time Altitude Azimuth Distance (km) Brightness Sun altitude
Rises 06:24:51 0° 19° (NNE) 3,241 6.2 -7.6°
Reaches altitude 10° 06:27:18 10° 27° (NNE) 2,310 5.6 -7.2°
Maximum altitude 06:32:07 42° 98° (E) 1,079 4.5 -6.4°
Drops below altitude 10° 06:36:54 10° 169° (S) 2,294 6.0 -5.6°
Sets 06:39:19 0° 176° (S) 3,215 6.6 -5.2°
